Location: Crescent
(42.8242°N, 73.7329°W)
Time: 00:20:31
(UTC+00:00)

Transit 4A - Pass Details

Date: 23 February 2026
Orbit: 864 x 977 km, 66.8° (Epoch: 9 March)

Event Time Altitude Azimuth Distance (km) Brightness Sun altitude
Rises 15:16:40 0° 333° (NNW) 3,607 10.4 31.7°
Reaches altitude 10° 15:19:22 10° 341° (NNW) 2,676 9.9 31.9°
Maximum altitude 15:25:13 40° 50° (NE) 1,389 9.1 32.5°
Drops below altitude 10° 15:31:09 10° 119° (ESE) 2,714 11.3 33.0°
Sets 15:33:54 0° 126° (SE) 3,664 11.9 33.3°
